Date String (YYYY-MM-DD hh:mm:ss) UTC,Instrument flags,absolute air pressure of the measurement (hPa),sample flow rate (lpm),inlet stack bypass flow (lpm),air temperature of the measurement (°C),ambient temperature measured by the external sensor (°C),aerosol sample conditioner tube jacket temperature (°C),OPC LED temperature (°C),internal box temperature (°C),relative humidity of the measurement (%),span deviation,mass concentration of particles derived from Lorenz-Mie calculation of OPC scattering (μg/m³),mass concentration of particles derived from Lorenz-Mie calculation of OPC scattering (μg/m³),mass concentration of particles derived from Lorenz-Mie calculation of OPC scattering (μg/m³)
DateTimeUTC,F1_M11,P_M11,Q1_M11,Q2_M11,T1_M11,T2_M11,T3_M11,T4_M11,T5_M11,U1_M11,ZSPAN_M11,X0_M11,X2_M11,X1_M11
2024-05-28 17:00:00,SystemResetWarning,0835.0,4.99,000.00,030.6,029.9,000.0,038.9,032.2,018.9,0000.0,0012.31,0003.69,0002.75
2024-05-28 17:01:00,SystemResetWarning,0834.9,5.00,000.00,030.6,029.9,000.0,038.9,032.2,019.0,0000.0,0012.34,0003.71,0002.74
2024-05-28 17:02:00,SystemResetWarning,0834.9,5.01,000.00,030.6,029.9,000.0,038.9,032.3,019.0,0000.0,0012.29,0003.73,0002.73
2024-05-28 17:03:00,SystemResetWarning,0834.9,5.00,000.00,030.7,030.0,000.0,038.9,032.3,018.7,0000.0,0012.76,0003.71,0002.72
2024-05-28 17:04:00,SystemResetWarning,0834.9,5.00,000.00,030.7,030.0,000.0,038.9,032.3,018.2,0000.0,0012.80,0003.70,0002.71
2024-05-28 17:05:00,SystemResetWarning,0834.9,5.00,000.00,030.7,030.1,000.0,038.9,032.4,018.1,0000.0,0012.02,0003.64,0002.69
2024-05-28 17:06:00,SystemResetWarning,0835.0,5.00,000.00,030.7,030.1,000.0,039.0,032.4,018.3,0000.0,0011.95,0003.60,0002.69
2024-05-28 17:07:00,SystemResetWarning,0834.9,4.99,000.00,030.7,029.4,000.0,039.0,032.1,018.5,0000.0,0011.96,0003.57,0002.64
2024-05-28 17:08:00,SystemResetWarning,0835.2,5.01,000.00,030.3,027.0,000.0,039.0,030.9,018.4,0000.0,0012.01,0003.56,0002.63
2024-05-28 17:09:00,SystemResetWarning,0834.7,5.01,000.00,029.9,026.4,000.0,039.0,030.5,018.8,0000.0,0013.27,0003.58,0002.62
2024-05-28 17:10:00,SystemResetWarning,0835.2,4.99,000.00,029.8,026.9,000.0,038.8,030.7,019.3,0000.0,0013.20,0003.60,0002.60
2024-05-28 17:11:00,SystemResetWarning,0835.3,5.00,000.00,029.8,027.3,000.0,038.7,030.9,019.0,0000.0,0012.57,0003.66,0002.62
2024-05-28 17:12:00,SystemResetWarning,0835.0,5.01,000.00,029.8,027.7,000.0,038.6,031.1,019.3,0000.0,0013.00,0003.69,0002.62
2024-05-28 17:13:00,SystemResetWarning,0834.9,5.00,000.00,029.8,028.0,000.0,038.5,031.2,018.8,0000.0,0013.27,0003.67,0002.61
2024-05-28 17:14:00,SystemResetWarning,0834.9,4.99,000.00,029.8,028.3,000.0,038.5,031.3,018.8,0000.0,0014.33,0003.68,0002.61
2024-05-28 17:15:00,SystemResetWarning,0834.8,4.99,000.00,029.9,028.5,000.0,038.4,031.4,018.9,0000.0,0013.89,0003.73,0002.62
2024-05-28 17:16:00,SystemResetWarning,0835.0,4.99,000.00,029.9,028.7,000.0,038.4,031.5,019.7,0000.0,0014.63,0003.81,0002.63
2024-05-28 17:17:00,SystemResetWarning,0835.1,5.01,000.00,029.9,028.9,000.0,038.4,031.5,019.0,0000.0,0014.62,0003.84,0002.62
2024-05-28 17:18:00,SystemResetWarning,0835.4,5.01,000.00,030.0,029.0,000.0,038.4,031.6,018.7,0000.0,0015.43,0003.89,0002.63
2024-05-28 17:19:00,SystemResetWarning,0834.9,5.00,000.00,030.0,029.2,000.0,038.4,031.7,018.6,0000.0,0015.22,0003.87,0002.63
2024-05-28 17:20:00,SystemResetWarning,0834.9,5.00,000.00,030.0,029.3,000.0,038.4,031.7,018.4,0000.0,0014.61,0003.82,0002.61
2024-05-28 17:21:00,SystemResetWarning,0834.9,5.00,000.00,030.1,029.3,000.0,038.4,031.8,018.7,0000.0,0014.41,0003.82,0002.62
2024-05-28 17:22:00,SystemResetWarning,0834.9,5.00,000.00,030.1,029.4,000.0,038.4,031.8,018.5,0000.0,0016.54,0003.78,0002.63
2024-05-28 17:23:00,SystemResetWarning,0834.9,5.00,000.00,030.2,029.5,000.0,038.4,031.9,018.2,0000.0,0016.76,0003.78,0002.64
2024-05-28 17:24:00,SystemResetWarning,0835.4,5.00,000.00,030.2,029.6,000.0,038.5,031.9,018.3,0000.0,0017.44,0003.81,0002.64
2024-05-28 17:25:00,SystemResetWarning,0835.3,4.99,000.00,030.2,029.6,000.0,038.5,031.9,018.7,0000.0,0016.34,0003.80,0002.65
2024-05-28 17:26:00,SystemResetWarning,0835.3,5.00,000.00,030.3,029.7,000.0,038.5,032.0,018.6,0000.0,0015.92,0003.76,0002.64
2024-05-28 17:27:00,SystemResetWarning,0835.4,5.00,000.00,030.3,029.7,000.0,038.5,032.0,018.1,0000.0,0015.66,0003.68,0002.64
2024-05-28 17:28:00,SystemResetWarning,0835.3,5.01,000.00,030.4,029.8,000.0,038.5,032.0,017.9,0000.0,0016.23,0003.67,0002.66
2024-05-28 17:29:00,SystemResetWarning,0835.4,5.01,000.00,030.4,029.8,000.0,038.6,032.1,017.7,0000.0,0015.56,0003.69,0002.67
2024-05-28 17:30:00,SystemResetWarning,0835.4,5.00,000.00,030.4,029.8,000.0,038.6,032.1,018.2,0000.0,0015.84,0003.74,0002.67
2024-05-28 17:31:00,SystemResetWarning,0835.4,5.00,000.00,030.4,029.9,000.0,038.6,032.1,018.8,0000.0,0015.50,0003.73,0002.68
2024-05-28 17:32:00,SystemResetWarning,0835.1,4.99,000.00,030.5,029.9,000.0,038.6,032.1,019.2,0000.0,0015.70,0003.75,0002.69
2024-05-28 17:33:00,SystemResetWarning,0835.1,4.99,000.00,030.5,029.4,000.0,038.7,031.8,019.5,0000.0,0015.40,0003.78,0002.70
2024-05-28 17:34:00,SystemResetWarning,0834.9,5.00,000.00,030.1,026.9,000.0,038.7,030.7,019.3,0000.0,0014.11,0003.77,0002.69
2024-05-28 17:35:00,SystemResetWarning,0834.8,5.01,000.00,029.6,026.0,000.0,038.7,030.1,019.3,0000.0,0013.58,0003.73,0002.69
2024-05-28 17:36:00,SystemResetWarning,0834.7,5.01,000.00,029.5,026.5,000.0,038.6,030.3,018.8,0000.0,0014.11,0003.75,0002.71
2024-05-28 17:37:00,SystemResetWarning,0834.9,5.00,000.00,029.5,026.9,000.0,038.4,030.5,019.0,0000.0,0015.95,0003.80,0002.73
2024-05-28 17:38:00,SystemResetWarning,0835.3,5.00,000.00,029.5,027.4,000.0,038.3,030.8,018.7,0000.0,0016.63,0003.82,0002.74
2024-05-28 17:39:00,SystemResetWarning,0835.5,5.00,000.00,029.5,027.7,000.0,038.2,031.0,018.9,0000.0,0016.95,0003.85,0002.75
2024-05-28 17:40:00,SystemResetWarning,0835.3,5.00,000.00,029.6,028.1,000.0,038.2,031.1,018.7,0000.0,0017.16,0003.81,0002.76
2024-05-28 17:41:00,SystemResetWarning,0835.0,5.00,000.00,029.6,028.3,000.0,038.1,031.2,018.8,0000.0,0017.04,0003.77,0002.77
2024-05-28 17:42:00,SystemResetWarning,0835.0,5.00,000.00,029.6,028.5,000.0,038.1,031.3,018.8,0000.0,0016.67,0003.76,0002.79
2024-05-28 17:43:00,SystemResetWarning,0834.8,5.00,000.00,029.7,028.7,000.0,038.1,031.3,018.8,0000.0,0016.41,0003.77,0002.79
2024-05-28 17:44:00,SystemResetWarning,0834.9,5.00,000.00,029.7,028.9,000.0,038.1,031.4,018.5,0000.0,0015.61,0003.77,0002.80
2024-05-28 17:45:00,SystemResetWarning,0834.8,4.99,000.00,029.8,029.0,000.0,038.1,031.5,018.5,0000.0,0016.20,0003.78,0002.82
2024-05-28 17:46:00,SystemResetWarning,0835.2,4.99,000.00,029.8,029.1,000.0,038.1,031.6,018.7,0000.0,0015.66,0003.79,0002.82
2024-05-28 17:47:00,SystemResetWarning,0834.9,5.00,000.00,029.9,029.2,000.0,038.2,031.6,018.0,0000.0,0015.71,0003.78,0002.81
2024-05-28 17:48:00,SystemResetWarning,0834.7,5.00,000.00,029.9,029.3,000.0,038.2,031.7,017.8,0000.0,0014.37,0003.78,0002.80
2024-05-28 17:49:00,SystemResetWarning,0834.7,5.00,000.00,030.0,029.4,000.0,038.2,031.7,018.4,0000.0,0013.34,0003.76,0002.80
2024-05-28 17:50:00,SystemResetWarning,0834.7,5.00,000.00,030.0,029.4,000.0,038.2,031.8,018.6,0000.0,0013.23,0003.76,0002.80
2024-05-28 17:51:00,SystemResetWarning,0834.7,5.01,000.00,030.1,029.5,000.0,038.3,031.8,018.7,0000.0,0013.04,0003.80,0002.80
2024-05-28 17:52:00,SystemResetWarning,0834.8,5.00,000.00,030.1,029.6,000.0,038.3,031.9,018.3,0000.0,0012.93,0003.83,0002.80
2024-05-28 17:53:00,SystemResetWarning,0834.8,4.99,000.00,030.2,029.6,000.0,038.3,031.9,017.5,0000.0,0012.87,0003.88,0002.79
2024-05-28 17:54:00,SystemResetWarning,0834.7,5.00,000.00,030.2,029.7,000.0,038.4,032.0,017.4,0000.0,0012.96,0003.89,0002.79
2024-05-28 17:55:00,SystemResetWarning,0834.7,5.00,000.00,030.2,029.7,000.0,038.4,032.0,017.2,0000.0,0013.71,0003.89,0002.78
2024-05-28 17:56:00,SystemResetWarning,0834.8,5.00,000.00,030.3,029.8,000.0,038.4,032.0,016.9,0000.0,0014.33,0003.90,0002.78
2024-05-28 17:57:00,SystemResetWarning,0834.8,5.00,000.00,030.3,029.8,000.0,038.4,032.1,017.0,0000.0,0014.58,0003.93,0002.79
2024-05-28 17:58:00,SystemResetWarning,0835.0,4.99,000.00,030.3,029.3,000.0,038.5,031.8,016.8,0000.0,0014.75,0003.94,0002.81
2024-05-28 17:59:00,SystemResetWarning,0834.8,5.00,000.00,030.0,026.8,000.0,038.5,030.6,016.6,0000.0,0014.46,0003.92,0002.84
